TimeEST,TemperatureF,Dew PointF,Humidity,Sea Level PressureIn,VisibilityMPH,Wind Direction,Wind SpeedMPH,Gust SpeedMPH,PrecipitationIn,Events,Conditions,WindDirDegrees,DateUTC
12:15 AM,39.2,21.2,49,30.24,10.0,ESE,4.6,-,N/A,,Overcast,110,2013-02-22 05:15:00
12:35 AM,39.2,21.2,49,30.26,10.0,East,5.8,-,N/A,,Overcast,100,2013-02-22 05:35:00
12:55 AM,37.4,21.2,52,30.27,10.0,ESE,3.5,-,N/A,,Overcast,110,2013-02-22 05:55:00
1:15 AM,37.4,21.2,52,30.27,10.0,ESE,6.9,-,N/A,,Overcast,110,2013-02-22 06:15:00
1:35 AM,37.4,26.6,65,30.28,4.0,SE,11.5,16.1,N/A,Snow,Light Snow,140,2013-02-22 06:35:00
1:55 AM,33.8,30.2,87,30.27,1.8,SE,9.2,16.1,N/A,Snow,Light Snow,140,2013-02-22 06:55:00
2:15 AM,33.8,32.0,93,30.26,1.5,SE,8.1,-,N/A,Snow,Light Snow,130,2013-02-22 07:15:00
2:35 AM,32.0,32.0,100,30.26,1.2,ESE,8.1,-,N/A,Snow,Light Snow,110,2013-02-22 07:35:00
2:55 AM,30.2,30.2,100,30.27,0.8,ESE,8.1,-,N/A,Snow,Snow,120,2013-02-22 07:55:00
3:15 AM,30.2,30.2,100,30.23,0.2,ESE,13.8,-,N/A,Snow,Snow,120,2013-02-22 08:15:00
3:35 AM,30.2,30.2,100,30.23,1.0,ESE,11.5,21.9,N/A,Snow,Snow,110,2013-02-22 08:35:00
3:55 AM,30.2,30.2,100,30.21,10.0,East,9.2,-,N/A,,Overcast,100,2013-02-22 08:55:00
4:15 AM,30.2,30.2,100,30.20,10.0,East,10.4,19.6,N/A,,Overcast,100,2013-02-22 09:15:00
4:35 AM,30.2,30.2,100,30.19,7.0,East,9.2,-,N/A,Snow,Light Snow,100,2013-02-22 09:35:00
4:55 AM,30.2,30.2,100,30.19,4.0,East,6.9,-,N/A,Snow,Snow,80,2013-02-22 09:55:00
5:15 AM,30.2,30.2,100,30.19,7.0,East,8.1,-,N/A,,Overcast,100,2013-02-22 10:15:00
5:35 AM,30.2,30.2,100,30.20,7.0,East,9.2,-,N/A,,Overcast,90,2013-02-22 10:35:00
5:55 AM,30.2,30.2,100,30.21,7.0,East,8.1,-,N/A,,Overcast,100,2013-02-22 10:55:00
6:15 AM,30.2,30.2,100,30.21,10.0,ESE,5.8,-,N/A,,Overcast,110,2013-02-22 11:15:00
6:35 AM,30.2,30.2,100,30.21,5.0,East,8.1,-,N/A,,Overcast,100,2013-02-22 11:35:00
7:15 AM,30.2,30.2,100,30.23,7.0,ESE,4.6,-,N/A,,Overcast,120,2013-02-22 12:15:00
7:35 AM,30.2,30.2,100,30.22,3.0,ESE,6.9,-,N/A,,Overcast,110,2013-02-22 12:35:00
7:55 AM,30.2,30.2,100,30.22,5.0,ESE,10.4,-,N/A,,Overcast,120,2013-02-22 12:55:00
8:35 AM,30.2,30.2,100,30.24,10.0,ESE,9.2,-,N/A,,Overcast,110,2013-02-22 13:35:00
8:55 AM,30.2,30.2,100,30.25,7.0,ESE,6.9,-,N/A,,Overcast,110,2013-02-22 13:55:00
9:15 AM,30.2,30.2,100,30.24,7.0,ESE,8.1,-,N/A,,Overcast,110,2013-02-22 14:15:00
9:35 AM,30.2,30.2,100,30.23,7.0,ESE,10.4,-,N/A,,Overcast,110,2013-02-22 14:35:00
9:55 AM,30.2,30.2,100,30.22,4.0,ESE,8.1,-,N/A,,Overcast,110,2013-02-22 14:55:00
10:15 AM,30.2,30.2,100,30.22,5.0,ESE,8.1,-,N/A,,Overcast,110,2013-02-22 15:15:00
10:35 AM,30.2,30.2,100,30.22,5.0,ESE,6.9,-,N/A,,Overcast,120,2013-02-22 15:35:00
10:55 AM,30.2,30.2,100,30.22,7.0,ESE,9.2,-,N/A,,Overcast,120,2013-02-22 15:55:00
11:15 AM,30.2,30.2,100,30.22,7.0,East,6.9,-,N/A,,Overcast,100,2013-02-22 16:15:00
11:35 AM,30.2,30.2,100,30.21,7.0,ESE,5.8,-,N/A,,Overcast,120,2013-02-22 16:35:00
11:55 AM,32.0,32.0,100,30.21,7.0,East,6.9,-,N/A,,Overcast,100,2013-02-22 16:55:00
12:15 PM,32.0,32.0,100,30.21,7.0,ESE,6.9,-,N/A,,Overcast,110,2013-02-22 17:15:00
12:35 PM,32.0,32.0,100,30.20,10.0,East,5.8,-,N/A,,Overcast,80,2013-02-22 17:35:00
12:55 PM,33.8,33.8,100,30.19,10.0,East,5.8,-,N/A,,Overcast,90,2013-02-22 17:55:00
1:15 PM,33.8,33.8,100,30.18,10.0,ESE,3.5,-,N/A,,Overcast,110,2013-02-22 18:15:00
1:35 PM,33.8,33.8,100,30.17,10.0,East,5.8,-,N/A,,Overcast,80,2013-02-22 18:35:00
1:55 PM,33.8,33.8,100,30.17,10.0,East,4.6,-,N/A,,Overcast,100,2013-02-22 18:55:00
2:15 PM,33.8,33.8,100,30.16,10.0,East,5.8,-,N/A,,Overcast,100,2013-02-22 19:15:00
2:35 PM,33.8,33.8,100,30.16,10.0,East,5.8,-,N/A,,Overcast,80,2013-02-22 19:35:00
2:55 PM,33.8,33.8,100,30.16,10.0,East,5.8,-,N/A,,Overcast,100,2013-02-22 19:55:00
3:15 PM,33.8,33.8,100,30.16,10.0,East,4.6,-,N/A,,Overcast,90,2013-02-22 20:15:00
3:35 PM,35.6,33.8,93,30.15,10.0,East,5.8,-,N/A,,Overcast,90,2013-02-22 20:35:00
3:55 PM,35.6,33.8,93,30.15,10.0,East,5.8,-,N/A,,Overcast,90,2013-02-22 20:55:00
4:15 PM,35.6,33.8,93,30.15,10.0,ESE,6.9,-,0.01,,Overcast,110,2013-02-22 21:15:00
4:35 PM,33.8,33.8,100,30.15,10.0,ESE,5.8,-,0.01,,Overcast,110,2013-02-22 21:35:00
4:55 PM,33.8,33.8,100,30.15,10.0,ESE,6.9,-,0.01,,Overcast,110,2013-02-22 21:55:00
5:15 PM,33.8,33.8,100,30.14,10.0,ESE,8.1,-,N/A,,Overcast,110,2013-02-22 22:15:00
5:35 PM,33.8,33.8,100,30.14,10.0,East,4.6,-,N/A,,Overcast,100,2013-02-22 22:35:00
5:55 PM,33.8,33.8,100,30.14,10.0,ESE,6.9,-,0.01,,Overcast,110,2013-02-22 22:55:00
6:15 PM,33.8,33.8,100,30.14,4.0,ESE,8.1,-,N/A,,Overcast,110,2013-02-22 23:15:00
6:35 PM,33.8,33.8,100,30.14,4.0,ESE,8.1,-,N/A,,Overcast,110,2013-02-22 23:35:00
6:55 PM,33.8,33.8,100,30.13,5.0,East,5.8,-,N/A,,Overcast,100,2013-02-22 23:55:00
7:15 PM,33.8,33.8,100,30.13,7.0,ESE,8.1,-,N/A,,Overcast,110,2013-02-23 00:15:00
7:35 PM,33.8,33.8,100,30.13,10.0,East,4.6,-,N/A,,Overcast,80,2013-02-23 00:35:00
7:55 PM,33.8,33.8,100,30.13,10.0,East,3.5,-,N/A,,Overcast,80,2013-02-23 00:55:00
8:15 PM,33.8,33.8,100,30.12,10.0,East,4.6,-,N/A,,Overcast,90,2013-02-23 01:15:00
8:35 PM,33.8,33.8,100,30.13,10.0,Calm,Calm,-,N/A,,Overcast,0,2013-02-23 01:35:00
8:55 PM,33.8,33.8,100,30.13,7.0,East,4.6,-,N/A,,Overcast,80,2013-02-23 01:55:00
9:15 PM,33.8,33.8,100,30.12,7.0,East,5.8,-,N/A,,Overcast,100,2013-02-23 02:15:00
9:35 PM,33.8,33.8,100,30.13,7.0,ENE,3.5,-,N/A,,Overcast,60,2013-02-23 02:35:00
9:55 PM,33.8,33.8,100,30.13,7.0,ENE,3.5,-,N/A,,Overcast,60,2013-02-23 02:55:00
10:15 PM,33.8,33.8,100,30.14,5.0,ENE,4.6,-,N/A,,Overcast,60,2013-02-23 03:15:00
10:35 PM,33.8,33.8,100,30.14,5.0,NE,3.5,-,N/A,,Overcast,40,2013-02-23 03:35:00
10:55 PM,33.8,33.8,100,30.13,5.0,Calm,Calm,-,N/A,,Overcast,0,2013-02-23 03:55:00
11:15 PM,33.8,33.8,100,30.11,5.0,ENE,4.6,-,N/A,,Overcast,70,2013-02-23 04:15:00
11:35 PM,33.8,33.8,100,30.10,5.0,ENE,4.6,-,N/A,,Overcast,60,2013-02-23 04:35:00
11:55 PM,33.8,33.8,100,30.08,5.0,East,4.6,-,N/A,,Overcast,80,2013-02-23 04:55:00